COSMOS 2443 (725)

Last updated on Oct. 16, 2017, 12:19 a.m. UTC

1 33379U 08046B   17288.47592267 -.00000023  00000-0  00000-0 0  9997
2 33379  65.5015  60.9555 0013028 177.7860 168.3766  2.13099425 70468
UTC
Height (km)
Latitude
Longitude
Inclination
Orbital Period
UTC large
Height (km)
Speed (km/s)
/
Latitude / Longitude
Inclination (degrees)
Orbital Period (minutes)
Azimuth
Elevation
Range (km)
Doppler Factor
iOS Compass Heading
iOS Angle

Next 30 passes for location: Hong Kong

Rise time Rise Azimuth (degrees) Set time Set Azimuth (degrees) Duration Max altitude (degrees)

No matching passes for this satellites